CAPE
3 16 0 1 66 61 58 34 25 72 324 1001 859 482 285 414 154 30 0 0 10 47 545 1344 1698 1960 2063 2444 3221 2979 2031 3345 3245 3227 2865 2592 2171 2708 2125 2712 2399 1987 2368 2644
0 0 30 17 5 17 0 1 0 0 557 479 336 285 136 21 71 2 0 0 0 0 6 77 315 861 1323 1885 1963 2357 2452 2167 2895 2824 3333 3140 3060 2830 3205 2525 2758 2554 2392 2446
0 0 0 0 11 2 0 2 6 215 460 295 132 35 1 0 1 1 2 0 0 0 0 41 82 317 445 963 1658 1989 2191 2901 2516 2795 3067 2641 2536 2892 2702 2930 2872 2568 2497 2437
0 0 0 28 0 4 16 0 1 12 7 0 0 0 0 0 3 3 0 0 0 0 0 0 0 1 189 287 886 1654 2219 2251 2574 2139 1795 2892 2435 2675 2936 2884 2794 2748 2322 2429
0 0 0 67 0 0 1 0 0 0 0 0 0 0 0 0 0 0 0 0 0 0 0 175 125 101 160 278 484 829 1338 2099 2444 2732 2466 2293 2474 2611 2647 2788 2675 2650 2565 2597
6 12 45 59 0 0 0 0 0 0 0 0 0 0 0 0 0 0 0 0 0 1 13 13 212 286 421 371 362 426 763 1494 2486 2600 1459 1113 2066 2596 2602 2381 2701 2823 2811 2692
1 6 137 1 0 0 0 6 0 0 0 0 0 0 0 0 0 0 0 0 6 21 70 268 408 510 695 721 685 817 998 1375 1645 2436 1384 478 986 1301 1612 1874 2136 2385 2583 2752
32 67 59 0 0 0 0 0 0 0 0 0 0 0 0 0 1 1 8 24 147 120 273 465 480 550 603 828 1181 1372 1415 1290 1279 1625 1781 1108 75 0 9 246 1044 1621 2282 2368
0 48 0 0 0 0 0 0 0 0 0 0 0 0 1 12 30 7 3 31 118 134 259 505 701 751 931 933 1006 1016 1166 1148 959 1025 1510 1205 700 224 50 3 119 9 1332 2067
0 0 0 0 0 0 0 0 0 0 0 2 12 5 2 0 1 13 20 29 135 354 420 530 676 880 911 923 1093 1097 961 1022 930 895 911 1351 1225 761 81 23 0 0 69 312
0 11 0 0 0 0 0 0 6 9 6 2 0 2 3 12 27 22 28 82 149 326 436 500 685 745 783 765 866 836 825 668 913 748 846 982 1355 1526 457 195 6 16 32 8
51 2 1 4 0 1 0 7 6 3 0 0 0 2 0 20 37 72 82 132 234 406 450 406 405 748 744 905 932 869 656 414 332 741 743 833 927 1540 987 376 26 1 0 0
0 0 0 0 20 5 1 8 15 0 19 4 0 9 30 27 51 38 138 281 378 316 298 496 557 571 768 801 971 971 979 969 804 356 699 765 572 1360 1561 544 1 1 1 0
0 0 0 16 24 10 12 20 13 12 7 0 4 12 31 33 33 68 77 170 296 111 87 396 354 388 603 631 937 960 1051 540 729 670 733 713 652 732 1556 1098 239 82 3 1
0 0 1 29 17 23 21 13 16 15 2 10 28 23 10 6 6 42 11 56 89 162 318 64 226 439 810 843 895 920 939 1037 917 861 893 412 500 685 575 911 616 256 0 1
0 0 23 17 29 31 28 17 12 6 5 12 10 33 9 3 12 11 18 31 112 79 144 207 71 140 897 901 914 891 1047 570 602 955 639 511 634 491 397 244 198 530 83 46
1 100 77 54 4 17 26 16 4 1 6 4 8 25 61 60 29 64 13 29 82 111 87 88 59 14 42 192 798 1048 1044 1026 485 680 825 668 653 695 601 423 296 762 857 694
33 70 42 70 21 16 27 13 5 1 2 5 18 47 108 144 155 128 58 19 18 11 3 8 13 58 36 228 613 1156 553 556 705 350 201 339 609 574 669 1164 994 929 770 690
38 56 79 68 30 103 103 20 12 13 12 23 28 35 56 20 133 102 21 12 9 8 4 10 11 10 35 263 435 1179 756 309 406 426 790 621 1111 1222 1103 1452 937 915 840 722
43 49 92 75 96 178 60 122 30 27 7 16 33 34 64 93 68 11 11 11 12 7 7 9 8 6 10 60 281 691 734 881 742 713 933 1295 1466 1468 1346 820 792 667 551 448
48 42 258 196 147 245 77 155 102 53 2 18 49 103 80 94 72 4 7 7 9 3 8 7 12 7 10 10 5 11 8 94 508 866 719 1031 1229 1206 1190 835 718 535 346 72
43 43 179 248 157 224 215 138 247 116 2 18 94 117 66 55 56 42 0 16 23 0 4 6 4 8 11 11 6 6 7 8 9 11 5 95 482 930 850 873 582 571 354 337
201 287 208 171 226 269 315 164 81 183 2 15 84 79 75 93 70 23 0 0 0 0 1 1 0 2 6 3 13 7 8 8 7 11 8 10 14 5 12 158 117 162 194 70
330 189 197 255 272 359 424 231 110 153 0 17 31 320 252 65 71 29 1 0 0 0 0 0 0 0 0 1 2 3 10 7 6 5 6 5 11 11 7 5 4 7 4 4
256 257 210 116 139 263 117 200 143 224 26 25 51 85 115 51 56 42 25 2 0 1 14 1 0 0 0 1 0 2 0 5 6 4 5 5 4 3 9 10 5 3 5 5
280 430 95 71 107 115 35 88 85 10 0 0 27 10 11 26 70 99 55 27 31 24 21 25 45 54 34 16 14 10 46 6 0 0 0 2 4 2 4 6 5 8 5 4
221 88 27 30 53 32 1 5 8 15 1 1 6 3 2 11 20 16 40 115 115 59 51 5 18 24 14 34 8 3 10 23 2 9 20 12 8 14 12 6 5 4 3 3
CIN
-16 -91 -0 -35 -29 -9 -1 -0 -4 -1 -12 -23 -95 -9 -59 -41 -145 -212 -0 -0 -68 -262 -109 -35 -37 -37 -35 -34 -41 -59 -114 -30 -20 -12 -9 -7 -9 -11 -17 -16 -6 -22 -15 -6
-0 -0 -0 -1 -1 -3 -0 -2 -0 -0 -14 -3 -29 -77 -96 -128 -81 -100 -0 -0 -0 -0 -253 -199 -128 -61 -40 -16 -17 -22 -35 -66 -62 -27 -10 -15 -15 -26 -19 -18 -19 -12 -11 -7
-0 -0 -0 -0 -4 -0 -0 -0 -5 -1 -46 -33 -13 -143 -34 -0 -0 -5 -0 -0 -0 -0 -0 -226 -170 -71 -66 -38 -10 -0 -3 -2 -37 -34 -7 -7 -11 -9 -12 -11 -11 -13 -6 -7
-0 -0 -0 -30 -0 -30 -40 -0 -8 -33 -10 -0 -0 -0 -0 -0 -36 -2 -0 -0 -0 -0 -0 -0 -0 -86 -74 -78 -25 -1 -0 -1 -1 -31 -50 -10 -15 -8 -9 -13 -9 -8 -9 -6
-0 -0 -0 -31 -0 -0 -34 -0 -0 -0 -0 -0 -0 -0 -0 -0 -0 -0 -0 -0 -0 -0 -0 -36 -52 -57 -42 -32 -21 -8 -2 -1 -1 -2 -2 -13 -13 -10 -9 -7 -7 -3 -5 -7
-48 -5 -0 -39 -0 -0 -0 -0 -0 -0 -0 -0 -0 -0 -0 -0 -0 -0 -0 -0 -0 -0 -0 -15 -15 -23 -27 -43 -32 -24 -2 -1 -1 -1 -41 -95 -8 -1 -8 -18 -4 -2 -1 -3
-1 -16 -35 -4 -0 -0 -0 -53 -0 -0 -0 -0 -0 -0 -0 -0 -0 -0 -0 -0 -0 -5 -33 -11 -8 -19 -12 -7 -12 -4 -3 -3 -2 -2 -41 -192 -78 -54 -40 -15 -10 -5 -5 -4
-3 -1 -47 -0 -0 -0 -0 -0 -0 -0 -0 -0 -0 -0 -0 -0 -0 -0 -0 -76 -19 -27 -7 -7 -24 -24 -15 -7 -7 -2 -2 -3 -4 -2 -5 -30 -290 -0 -227 -297 -6 -20 -6 -8
-0 -79 -6 -0 -0 -0 -0 -0 -0 -0 -0 -0 -0 -0 -0 -0 -129 -3 -1 -64 -42 -60 -38 -6 -2 -1 -1 -5 -6 -10 -2 -2 -7 -7 -2 -22 -40 -157 -121 -118 -31 -26 -0 -2
-0 -0 -0 -0 -0 -0 -0 -0 -0 -0 -0 -1 -0 -0 -0 -0 -0 -0 -0 -7 -36 -16 -15 -6 -6 -0 -0 -1 -2 -1 -1 -3 -2 -3 -6 -10 -13 -38 -118 -120 -0 -0 -0 -48
-0 -6 -0 -3 -0 -0 -0 -0 -0 -0 -0 -0 -0 -0 -0 -0 -0 -0 -0 -59 -46 -13 -0 -0 -0 -0 -0 -0 -1 -1 -1 -4 -2 -0 -4 -4 -21 -2 -91 -163 -79 -77 -119 -158
-31 -6 -3 -0 -0 -0 -0 -0 -1 -3 -0 -0 -0 -0 -0 -0 -0 -72 -34 -54 -29 -0 -0 -0 -0 -0 -0 -0 -0 -0 -0 -4 -11 -0 -0 -0 -1 -30 -88 -127 -135 -89 -0 -0
-0 -0 -0 -0 -1 -9 -6 -1 -1 -0 -0 -5 -0 -0 -0 -4 -3 -4 -52 -27 -2 -9 -4 -0 -0 -0 -0 -1 -0 -0 -0 -0 -1 -11 -0 -0 -3 -25 -13 -175 -0 -0 -0 -0
-0 -0 -0 -1 -7 -7 -0 -0 -0 -0 -3 -0 -0 -0 -0 -0 -0 -12 -104 -69 -15 -59 -59 -0 -2 -2 -0 -0 -0 -0 -0 -2 -1 -0 -2 -0 -6 -2 -11 -72 -216 -253 -59 -0
-0 -0 -0 -0 -7 -1 -3 -5 -0 -0 -0 -1 -0 -0 -1 -10 -0 -0 -0 -126 -64 -34 -4 -92 -3 -0 -0 -0 -0 -0 -0 -0 -0 -1 -2 -4 -16 -9 -5 -13 -82 -119 -0 -0
-0 -0 -3 -6 -11 -7 -7 -1 -0 -0 -0 -1 -1 -0 -13 -19 -7 -12 -0 -6 -53 -0 -47 -20 -38 -0 -0 -0 -0 -0 -0 -12 -12 -1 -17 -7 -3 -12 -17 -48 -156 -65 -50 -106
-0 -3 -1 -1 -5 -2 -2 -0 -0 -0 -0 -0 -0 -2 -0 -0 -0 -3 -0 -0 -0 -0 -0 -0 -0 -11 -18 -32 -0 -0 -1 -1 -12 -11 -7 -1 -4 -8 -1 -9 -27 -8 -18 -30
-0 -5 -2 -1 -3 -5 -2 -0 -0 -0 -0 -0 -0 -0 -2 -29 -57 -82 -8 -0 -0 -0 -0 -0 -1 -0 -2 -5 -0 -2 -30 -26 -4 -32 -43 -53 -4 -14 -14 -5 -18 -28 -4 -6
-1 -0 -0 -2 -9 -3 -1 -0 -0 -0 -0 -0 -0 -0 -0 -1 -73 -0 -0 -0 -0 -0 -0 -0 -0 -0 -0 -8 -13 -0 -13 -59 -45 -39 -10 -24 -30 -20 -8 -9 -10 -0 -2 -9
-0 -0 -0 -0 -4 -4 -0 -2 -0 -0 -0 -0 -0 -0 -0 -0 -0 -0 -0 -0 -0 -0 -0 -0 -0 -0 -0 -28 -4 -0 -0 -7 -18 -34 -21 -3 -2 -1 -12 -29 -7 -3 -9 -7
-1 -1 -4 -3 -0 -0 -2 -7 -19 -3 -1 -0 -0 -2 -7 -0 -1 -5 -0 -0 -0 -0 -0 -0 -0 -0 -0 -0 -0 -0 -0 -93 -28 -3 -17 -9 -2 -7 -4 -12 -0 -0 -17 -106
-0 -0 -2 -6 -0 -1 -2 -0 -6 -0 -0 -0 -4 -3 -22 -11 -7 -2 -0 -0 -0 -0 -1 -0 -0 -0 -0 -0 -0 -0 -0 -0 -0 -0 -0 -58 -35 -6 -3 -3 -10 -0 -0 -2
-10 -4 -2 -2 -0 -0 -5 -0 -1 -1 -0 -0 -0 -8 -0 -3 -6 -18 -0 -0 -0 -0 -1 -0 -0 -0 -0 -0 -0 -0 -0 -0 -0 -0 -0 -0 -0 -0 -2 -0 -35 -7 -4 -9
-6 -0 -0 -3 -0 -0 -0 -0 -2 -11 -0 -0 -0 -12 -4 -5 -7 -12 -1 -0 -0 -0 -0 -0 -0 -0 -0 -1 -1 -0 -0 -0 -0 -0 -0 -0 -0 -0 -0 -0 -0 -0 -0 -0
-0 -0 -0 -0 -0 -2 -10 -23 -33 -12 -0 -0 -1 -0 -4 -2 -4 -16 -13 -2 -0 -2 -3 -2 -0 -5 -0 -3 -0 -1 -1 -0 -0 -0 -0 -0 -0 -0 -0 -0 -0 -0 -0 -0
-0 -0 -0 -7 -16 -35 -48 -24 -25 -0 -0 -0 -0 -1 -0 -0 -2 -34 -27 -26 -9 -19 -36 -38 -2 -2 -3 -15 -27 -11 -1 -2 -0 -0 -0 -0 -0 -0 -0 -0 -0 -0 -0 -0
-0 -1 -2 -2 -14 -39 -6 -4 -8 -4 -0 -1 -0 -0 -0 -0 -1 -5 -45 -6 -6 -4 -28 -68 -37 -26 -36 -2 -1 -0 -0 -0 -3 -0 -0 -2 -4 -1 -0 -0 -0 -0 -0 -0
Wind_Speed
1 8 11 17 21 24 11 8 6 9 13 15 11 7 8 8 8 8 9 10 9 8 6 7 7 7 7 8 7 8 10 7 6 12 12 11 13 10 14 11 12 13 12 12
15 16 16 21 18 12 10 6 9 8 16 12 10 6 5 4 6 7 6 7 7 8 8 6 6 7 7 5 8 7 4 8 9 7 9 10 10 10 10 12 12 12 13 13
13 14 13 14 9 5 5 2 4 5 12 7 8 6 4 5 1 7 1 6 8 9 7 4 6 6 7 8 7 6 9 7 7 7 9 11 12 10 11 11 11 13 13 13
11 13 14 11 9 9 6 10 8 4 8 7 7 7 9 8 7 9 10 9 8 9 8 8 9 10 8 10 8 8 8 8 9 11 8 11 12 12 12 10 12 12 13 14
10 11 8 11 10 8 3 14 14 4 8 6 8 8 8 13 10 9 11 10 9 11 10 8 8 8 8 10 11 9 10 9 7 7 10 9 11 14 13 11 12 14 13 14
11 9 11 11 9 7 3 6 11 10 8 8 9 7 5 15 13 12 13 12 11 11 10 11 10 9 9 9 10 12 11 10 7 6 5 8 9 11 11 13 14 12 14 15
10 9 9 10 7 4 6 7 6 7 7 9 8 8 12 14 14 13 12 14 13 11 11 10 10 9 9 9 10 10 10 11 11 7 9 9 6 6 8 12 14 14 14 14
10 12 6 8 2 4 6 4 8 8 9 10 11 12 14 14 14 14 14 14 13 13 14 10 11 11 12 10 10 10 9 11 11 13 7 6 8 7 6 8 17 16 13 12
7 7 9 7 10 5 6 5 7 8 10 11 12 14 15 13 14 15 17 14 14 14 15 11 11 13 13 11 12 11 11 11 10 15 12 8 8 9 7 6 18 10 11 10
1 9 10 6 7 11 12 9 9 9 10 12 14 17 18 17 16 15 14 14 15 17 15 15 14 15 15 13 12 10 12 12 11 13 13 10 9 7 7 10 12 13 14 10
6 9 10 10 8 6 6 7 9 12 14 15 15 16 16 14 13 14 15 15 14 15 16 17 16 16 15 15 13 12 12 11 11 13 14 12 11 10 10 11 11 12 16 14
8 7 4 6 4 7 5 8 11 10 12 13 13 13 15 14 14 12 13 15 16 16 17 17 17 15 15 13 13 12 12 9 9 11 11 11 10 10 15 13 19 20 18 7
9 4 4 4 11 11 6 8 8 10 10 16 16 16 15 11 11 15 15 15 15 16 19 18 16 15 15 13 12 12 12 11 10 11 11 10 11 8 9 7 9 11 11 11
6 3 2 6 5 5 7 8 10 12 13 11 14 14 16 15 16 15 15 17 17 17 17 17 16 15 13 14 13 13 13 12 10 11 11 11 11 9 8 8 6 11 12 11
5 3 6 6 5 5 11 7 9 10 10 12 11 11 15 14 14 16 15 17 17 18 16 14 15 14 13 12 12 12 10 9 10 10 11 12 12 11 9 6 6 10 5 5
3 4 4 5 7 7 6 7 10 10 11 9 10 11 10 10 11 12 14 15 14 15 17 14 14 15 13 12 12 11 11 16 14 10 10 11 11 12 11 9 7 5 9 12
4 4 0 4 4 5 7 8 9 10 11 12 10 11 11 12 14 13 14 17 15 15 18 17 17 15 13 11 12 10 10 10 12 9 9 12 10 9 11 10 10 8 2 1
4 4 3 2 4 5 6 8 8 10 10 11 12 12 13 15 13 15 15 16 16 17 15 17 17 16 15 15 14 10 9 5 8 8 7 14 14 11 10 5 4 7 6 3
3 6 1 4 2 4 3 7 7 9 10 10 9 10 12 13 13 13 16 14 14 15 17 17 25 18 15 16 15 10 8 5 10 11 10 13 10 7 6 3 6 5 5 3
5 5 4 2 3 7 4 6 9 7 9 10 10 9 11 12 12 14 13 11 12 11 16 17 17 16 16 16 15 11 10 8 5 6 8 8 8 7 6 6 7 6 5 5
6 8 4 3 5 5 5 4 8 6 8 8 9 9 10 8 11 13 14 10 15 17 15 20 15 13 11 15 14 12 13 12 12 10 11 7 5 7 6 7 6 5 5 5
8 9 6 6 5 7 7 4 6 3 6 6 8 6 4 6 6 8 8 9 8 17 12 11 13 22 16 21 12 12 13 13 12 11 12 12 10 4 1 1 1 2 1 2
7 7 7 7 7 7 9 4 4 7 5 5 4 3 4 3 5 4 9 11 8 11 8 9 18 24 21 15 10 13 13 13 13 12 13 12 11 12 12 11 7 7 6 6
7 7 5 5 6 6 7 6 6 7 2 4 5 5 3 4 4 5 7 6 5 6 6 7 10 19 18 10 12 12 10 13 12 12 12 14 12 11 11 11 10 10 9 12
6 4 3 2 2 1 1 5 7 8 5 1 2 5 5 1 2 2 2 5 1 6 6 5 1 9 8 8 9 9 9 9 9 11 12 12 11 12 12 10 10 10 9 9
5 2 3 3 1 1 3 6 8 4 4 6 4 5 7 7 2 5 3 1 2 7 6 8 9 7 7 7 7 8 8 8 8 6 7 8 10 11 10 9 10 10 8 8
1 3 3 4 4 4 2 2 5 4 5 7 7 8 9 9 9 7 3 3 1 1 6 6 8 10 9 9 10 10 9 8 9 11 10 9 8 7 8 7 7 7 7 9
Wind_Direction
302 175 137 277 290 282 310 315 314 341 126 116 122 91 88 95 97 77 62 50 44 36 24 22 17 2 354 347 354 358 349 295 240 202 207 214 221 222 210 206 203 210 218 210
279 287 219 234 273 290 281 314 316 297 95 111 108 106 73 72 135 95 62 44 18 1 349 9 355 341 332 331 336 331 320 309 314 277 221 226 229 226 214 214 201 209 216 223
285 289 288 273 316 293 308 193 44 42 84 48 78 64 17 324 334 128 111 31 353 330 312 318 316 317 331 336 314 307 312 308 292 281 254 246 239 235 233 224 211 211 223 226
272 286 270 77 57 37 34 48 56 19 108 87 72 11 318 299 35 32 7 344 325 308 314 322 324 323 318 310 301 296 283 281 287 283 241 236 236 236 229 224 226 219 216 225
251 247 228 123 52 49 39 61 31 94 46 49 27 346 82 47 20 346 330 323 322 329 324 312 291 283 287 294 297 288 280 284 269 280 271 250 238 231 226 224 221 223 222 220
260 274 276 92 77 35 7 126 48 31 23 2 354 305 309 359 343 329 322 321 318 307 308 306 296 290 282 277 283 288 290 292 288 245 242 261 264 250 241 229 228 224 220 223
232 253 87 86 76 325 244 74 31 19 1 338 324 330 324 315 314 314 312 307 304 296 289 288 281 284 283 273 269 276 290 298 292 250 229 244 254 272 277 255 235 229 232 226
248 255 147 25 233 15 55 33 19 3 349 332 325 311 304 305 305 302 309 321 333 328 318 337 322 301 288 290 310 283 271 279 286 281 234 239 231 246 19 335 271 242 223 232
22 77 103 83 65 69 49 36 14 347 324 314 307 303 302 306 329 332 320 318 313 302 294 304 303 302 290 285 285 278 279 271 270 276 276 221 227 230 228 248 269 303 273 235
207 113 82 63 82 49 29 4 338 318 309 305 324 334 327 326 314 313 318 315 321 323 317 310 307 299 290 290 273 277 275 270 265 265 270 251 243 241 202 218 212 227 254 288
134 87 95 67 41 17 344 330 329 341 349 340 324 320 319 313 319 328 322 311 306 301 299 293 292 289 286 284 284 278 270 264 266 258 257 254 220 218 219 222 219 199 224 221
85 67 18 66 36 42 345 347 355 334 331 333 323 320 317 323 316 314 316 312 303 305 299 293 288 291 288 283 274 275 272 267 262 263 255 259 245 215 227 205 200 205 204 222
93 64 47 275 80 58 15 317 347 321 330 3 346 341 335 322 317 326 314 313 319 319 311 299 290 290 288 277 271 272 269 266 268 269 277 272 256 231 227 203 210 263 180 165
75 52 283 23 47 26 291 341 349 344 18 351 347 337 343 333 324 316 327 317 316 314 305 308 300 291 287 281 276 266 264 253 258 261 272 271 267 268 224 214 208 225 230 212
77 360 287 60 67 324 23 351 328 352 353 14 346 351 351 332 322 324 323 312 309 305 307 310 302 289 290 288 283 276 266 258 251 255 260 244 264 278 290 248 204 216 166 196
348 274 70 45 15 28 344 325 346 351 340 360 355 349 350 327 313 312 310 311 326 320 319 319 314 315 306 298 284 276 265 252 243 248 260 271 230 247 259 264 262 216 206 184
318 42 57 60 357 340 320 359 346 345 338 351 348 334 334 327 325 333 337 338 329 319 333 329 317 308 306 304 300 288 277 270 246 261 274 269 261 262 237 238 246 265 231 115
313 97 321 314 295 317 331 340 351 341 351 344 347 0 347 346 336 335 350 340 336 340 334 328 312 306 299 292 298 296 280 306 298 268 306 279 255 244 251 271 322 293 304 273
326 310 36 307 271 291 302 327 345 343 358 347 357 358 6 358 346 2 356 344 348 340 336 331 333 334 319 314 315 308 295 227 269 266 233 242 274 263 255 252 254 259 254 252
292 311 284 242 256 266 314 323 326 358 4 351 346 359 355 355 28 11 355 350 350 342 334 339 346 346 340 327 326 308 297 303 280 272 257 232 232 240 219 211 216 234 253 265
324 308 119 247 283 260 260 321 309 24 356 359 342 16 12 5 46 25 8 360 353 348 349 355 355 360 2 5 12 9 9 0 3 351 335 321 247 235 236 226 206 215 187 199
319 300 335 36 324 299 282 283 312 339 8 359 340 26 35 14 22 45 49 16 355 358 4 9 4 4 10 24 19 20 18 19 15 7 4 3 352 323 223 169 54 32 4 269
346 347 359 341 306 289 274 266 287 303 12 339 4 326 342 27 58 28 26 19 8 344 4 15 12 15 14 25 11 25 25 28 25 22 18 16 10 22 24 26 30 24 19 9
321 325 353 327 295 270 257 263 277 290 354 306 346 221 317 4 88 54 103 86 32 9 6 8 32 34 35 23 22 18 20 28 32 29 27 27 27 26 27 28 26 23 25 33
311 333 281 299 256 192 327 297 294 284 346 276 11 8 148 83 64 119 352 98 82 330 19 33 265 95 51 31 21 18 23 19 33 37 31 31 24 34 23 19 23 36 25 31
297 287 198 181 128 20 310 277 252 75 2 329 360 14 6 352 57 169 188 350 17 357 20 353 351 358 63 81 63 37 26 16 11 37 53 41 35 31 29 18 20 16 26 28
341 249 125 166 188 179 192 324 31 19 57 332 21 15 3 356 347 353 304 183 324 38 64 12 351 4 350 58 54 47 44 34 34 25 32 41 39 37 42 28 23 20 19 27